Location: *
(28.2408°N, 53.4600°E)
Time: 07:39:28
(UTC+00:00)

CZ-4 R/B - Pass Details

Date: 22 September 2019
Orbit: 532 x 598 km, 97.8° (Epoch: 15 October)

Event Time Altitude Azimuth Distance (km) Brightness Sun altitude
Rises 14:51:04 0° 167° (SSE) 2,664 4.6 -6.9°
Reaches altitude 10° 14:53:09 10° 167° (SSE) 1,782 3.8 -7.4°
Maximum altitude 14:57:00 88° 80° (E) 545 1.3 -8.2°
Drops below altitude 10° 15:00:56 10° 349° (N) 1,819 4.2 -9.1°
Sets 15:03:04 0° 349° (N) 2,726 5.1 -9.6°
